GEFSCGP_500_meanwind_216.txt.gz
Wind_Speed
22 21 20 18 17 15 15 13 12 11 13 13 11 11 9 9 9 9 8 7 7 6 6 6 6 6 6 6 7 7 8 8 8 8 9 9 9 10 10 9 10 9 10 10
23 22 20 20 19 19 17 15 14 13 15 14 12 11 12 11 10 11 10 9 8 8 7 6 7 7 7 7 8 8 9 9 9 9 10 10 10 11 11 10 10 9 9 9
22 21 22 22 21 21 18 17 16 15 15 15 13 12 13 12 11 12 12 11 11 9 9 8 8 8 8 8 8 9 9 9 9 10 10 10 10 10 10 10 10 9 9 9
23 23 23 23 22 21 19 18 18 17 17 16 14 15 15 15 14 14 14 13 12 11 10 9 9 9 9 9 9 9 9 9 10 10 10 10 11 11 10 10 10 9 9 9
24 25 24 24 23 22 21 20 20 18 18 17 14 15 15 15 15 14 14 14 13 12 12 11 10 10 10 10 10 10 10 10 11 11 11 11 11 11 11 10 10 9 10 10
25 25 25 24 24 24 22 21 20 19 18 19 17 16 16 17 17 15 15 16 16 12 12 12 11 11 12 12 11 11 11 11 11 11 11 12 12 12 11 11 11 10 10 10
26 25 26 25 25 25 24 22 19 18 18 18 16 17 19 17 16 15 16 15 15 12 13 13 12 12 13 13 13 12 12 12 12 12 12 12 13 12 11 11 11 11 11 11
26 25 25 26 26 25 25 23 20 18 16 16 16 18 19 18 16 14 14 15 15 14 14 14 13 12 14 14 13 12 12 12 13 13 13 13 13 12 11 11 11 12 12 11
23 23 24 25 25 25 25 24 20 17 15 15 17 17 17 19 18 16 16 16 16 14 14 15 14 12 13 14 14 13 13 13 12 13 12 13 12 11 11 11 11 12 12 11
22 20 22 24 26 26 24 23 24 24 21 18 16 17 17 18 18 18 17 17 16 15 15 15 14 13 13 14 14 14 14 13 13 13 12 12 11 11 11 11 11 12 12 12
23 21 22 25 26 25 25 25 25 24 22 19 17 19 19 20 17 17 17 16 16 16 15 15 15 14 14 13 13 14 13 12 12 12 12 12 11 11 12 12 12 12 12 12
26 23 21 23 23 23 24 25 26 25 24 23 20 18 16 16 15 17 18 18 17 16 15 15 15 14 14 13 14 14 13 12 12 12 12 12 12 12 13 13 13 13 13 12
28 26 23 22 23 24 25 26 27 26 25 23 20 19 18 16 16 17 18 19 18 17 16 16 14 14 14 13 14 14 13 13 13 12 12 13 13 13 14 15 14 14 13 13
30 29 26 21 21 23 25 26 27 27 27 24 22 19 20 16 17 18 18 19 18 18 17 17 15 15 14 14 14 13 14 14 14 13 13 14 14 15 15 15 15 14 13 13
31 31 30 25 22 22 24 25 26 28 27 25 21 21 21 17 17 19 20 20 20 19 19 18 17 16 15 15 14 13 13 13 14 14 14 14 14 15 15 15 15 15 15 14
32 32 31 29 25 21 23 23 24 26 25 25 22 20 22 22 20 20 21 21 21 20 19 18 16 16 16 16 15 15 14 14 14 14 15 15 15 15 15 16 16 16 16 15
32 31 31 29 26 23 25 24 24 25 25 25 24 22 22 21 22 22 21 20 21 21 21 19 17 16 16 16 16 16 16 16 16 15 15 15 15 15 16 16 17 17 16 16
30 30 29 26 26 25 23 23 25 26 26 27 27 26 26 25 26 25 23 22 22 21 21 19 18 18 17 17 17 17 18 17 17 17 16 16 16 16 17 18 18 17 17 17
29 29 28 26 25 25 23 23 23 25 26 27 28 28 27 27 26 25 24 23 23 23 22 21 21 20 19 18 18 18 18 19 18 18 18 17 17 18 19 19 19 18 18 18
29 29 29 28 26 24 24 24 25 25 27 27 28 28 28 28 27 27 26 23 23 24 23 22 21 21 20 20 20 19 19 19 19 18 18 19 19 20 20 20 20 19 19 19
30 30 30 30 29 26 25 26 26 26 26 26 27 28 29 28 27 27 25 24 25 24 24 23 22 22 21 20 20 20 20 20 20 20 20 20 21 21 21 21 20 20 20 20
29 30 30 30 29 28 27 27 28 27 27 27 27 29 29 28 28 28 28 26 26 25 25 24 23 22 21 21 21 20 20 21 21 21 21 21 22 22 22 21 21 21 20 20
29 30 30 31 30 30 29 29 28 26 27 28 28 29 29 28 28 28 28 27 26 26 25 25 24 23 23 23 22 21 21 21 21 21 21 21 21 21 21 21 21 21 21 21
30 32 32 32 32 32 31 30 29 28 28 29 28 29 29 28 28 27 28 28 27 26 26 25 24 24 24 23 23 21 21 21 22 21 21 21 20 21 21 21 22 22 22 22
33 32 33 34 34 34 33 31 31 29 28 29 29 30 29 28 28 28 28 28 27 27 27 26 25 25 24 23 23 22 21 22 22 21 22 21 21 22 22 23 22 22 22 21
35 35 36 36 35 33 32 30 30 30 30 30 30 30 29 28 29 29 28 28 28 28 27 27 26 25 25 25 24 24 23 22 22 22 22 23 23 24 24 23 22 22 21 22

GEFSCGP_500_meanwind_222.txt.gz
Wind_Speed
23 22 20 19 19 18 17 15 13 11 10 9 8 6 6 5 4 3 4 3 3 4 4 5 4 3 2 2 3 4 4 4 4 5 5 5 5 5 5 6 5 5 5 5
24 23 21 22 22 20 18 16 14 12 11 10 10 9 8 7 6 5 5 4 4 4 4 5 5 4 3 3 4 4 5 5 5 5 6 5 5 5 6 6 6 5 5 5
24 23 24 24 23 21 19 16 15 14 13 12 11 11 9 9 8 7 7 7 6 5 4 5 5 5 5 4 5 5 6 6 6 7 7 6 7 7 7 7 6 6 6 6
25 25 26 26 25 22 19 18 18 16 15 14 13 12 11 10 10 9 9 10 9 7 6 6 6 5 5 5 6 6 6 6 7 7 7 7 7 7 8 8 8 7 7 7
26 26 26 26 24 22 20 18 18 17 17 17 16 15 12 12 12 11 10 10 9 7 7 7 7 6 6 5 6 6 6 6 7 7 7 7 8 9 8 9 9 8 8 8
27 27 27 26 25 23 22 21 20 20 19 19 17 17 15 14 13 12 11 10 8 7 8 8 8 7 7 7 7 6 6 6 7 8 8 8 9 9 9 9 10 9 8 8
28 28 27 27 26 25 24 24 23 23 22 18 17 19 17 15 14 13 13 12 10 9 9 9 8 8 8 7 7 8 8 8 8 9 8 8 9 9 9 9 10 9 9 9
28 28 27 26 26 26 25 25 24 24 22 19 19 20 17 15 14 14 13 12 11 10 9 9 9 8 8 8 8 9 9 9 9 9 9 9 9 9 9 8 8 9 9 9
28 27 27 26 26 27 26 27 25 24 22 20 19 18 17 16 16 16 16 14 12 11 10 10 9 9 9 10 10 10 10 10 10 10 9 9 9 9 9 9 9 9 9 9
28 28 27 27 27 27 26 26 26 26 24 22 20 18 14 14 16 16 16 14 13 13 11 12 10 10 10 10 10 11 10 10 10 10 10 10 9 9 9 9 9 10 10 10
28 28 28 28 28 26 26 27 27 27 26 24 21 18 15 14 15 15 16 16 14 14 13 11 11 10 11 10 11 11 11 11 9 9 10 11 10 10 9 9 9 10 11 11
28 28 28 27 26 26 26 27 27 27 27 26 24 20 17 16 16 16 17 16 15 14 13 13 12 11 12 11 11 11 11 10 9 9 10 10 10 9 9 10 10 11 11 11
29 29 28 27 27 26 26 26 27 28 27 27 26 22 19 17 17 17 17 16 14 14 13 12 11 13 12 11 11 11 10 9 9 9 10 10 9 9 10 10 10 11 11 10
30 30 29 27 26 26 26 26 27 28 29 28 27 24 22 21 19 19 18 17 16 15 14 12 11 12 12 12 12 11 9 9 9 10 9 10 10 9 10 10 10 11 11 11
31 31 30 29 27 27 27 26 27 28 28 28 27 26 23 22 22 20 19 18 17 16 14 12 12 12 12 12 11 10 9 9 10 10 10 9 9 10 10 10 11 11 12 12
31 31 31 30 29 28 28 27 27 28 28 28 28 27 24 23 22 21 20 17 17 17 16 14 13 13 12 11 10 10 10 10 11 11 11 12 11 11 10 11 11 12 11 12
31 32 32 32 30 30 30 28 27 27 28 29 28 26 24 23 22 21 21 20 18 17 17 15 14 14 12 11 11 11 12 12 12 12 12 11 11 12 12 12 12 12 12 12
31 32 32 32 32 33 29 28 28 27 27 27 28 27 26 25 24 24 22 21 20 18 17 17 16 17 17 15 14 13 13 13 13 12 12 12 12 13 13 13 12 13 13 13
33 32 33 33 33 33 30 28 28 29 28 27 27 27 27 26 26 25 24 24 22 21 19 18 19 19 18 16 15 15 15 15 14 14 14 13 14 14 14 14 14 14 14 14
33 33 34 34 35 34 31 29 28 29 28 27 27 28 28 28 28 27 26 26 24 23 22 20 18 18 18 17 17 16 17 16 15 14 14 14 15 15 15 15 14 15 16 16
34 34 34 34 35 34 32 31 30 30 27 27 27 28 29 30 29 28 27 27 26 24 23 21 19 18 18 18 18 18 18 17 17 16 16 15 15 16 16 16 16 16 17 17
35 34 34 34 35 33 31 32 31 30 28 28 28 28 28 28 28 28 28 28 26 25 23 22 20 19 19 18 18 18 17 17 17 17 17 17 17 17 17 18 18 17 17 17
35 35 34 34 33 30 30 30 31 30 29 28 28 28 28 27 28 28 29 29 27 25 24 21 20 20 20 19 19 19 19 18 18 18 17 17 18 18 18 18 18 18 18 18
36 35 35 34 33 32 30 30 31 30 30 29 28 27 27 26 26 27 27 26 25 24 22 21 21 21 20 20 20 20 20 20 19 19 18 18 19 19 18 19 19 19 18 18
34 34 35 35 34 33 31 29 30 30 29 28 27 27 27 27 27 26 27 26 25 23 22 21 21 21 20 20 21 21 21 21 20 19 19 19 19 19 19 20 20 20 20 20
35 34 34 34 34 33 31 30 30 30 30 30 29 28 27 28 28 27 26 26 24 23 21 21 22 22 21 21 21 21 21 21 21 21 20 20 20 20 20 20 20 19 20 20

GEFSCGP_500_meanwind_228.txt.gz
Wind_Speed
22 22 21 19 17 16 15 14 13 11 10 8 7 6 4 3 3 4 4 4 4 4 4 5 6 6 5 4 4 4 4 5 5 4 3 4 4 4 5 5 5 5 5 5
24 23 22 21 20 18 18 16 14 13 12 11 9 7 6 5 4 4 4 4 4 3 3 5 5 5 6 5 6 5 5 6 7 5 4 4 4 5 6 5 5 6 6 6
25 24 23 22 21 20 19 17 16 15 13 13 11 9 7 6 5 4 5 5 5 5 4 4 5 6 5 5 5 6 7 7 7 6 4 4 4 5 6 7 7 7 7 8
27 26 25 23 22 21 20 18 18 17 16 14 12 10 8 7 6 6 6 6 6 6 5 5 6 6 6 6 6 7 7 6 6 5 5 5 5 6 7 7 8 9 9 9
27 26 25 24 23 22 22 21 19 18 18 16 15 13 9 8 7 6 7 7 7 7 7 7 7 7 7 6 6 7 6 5 5 5 6 6 6 7 8 8 9 10 10 10
28 27 26 25 24 24 23 23 22 20 19 18 16 14 11 9 8 7 7 8 8 9 9 8 7 7 7 7 6 7 7 6 6 6 7 7 7 7 8 9 10 10 10 10
29 28 27 26 26 26 25 24 23 23 22 20 17 16 12 10 10 9 9 8 9 9 9 8 8 8 8 7 8 8 7 7 7 7 7 7 7 8 8 9 9 10 10 10
29 28 28 27 27 26 25 25 24 24 23 21 19 18 14 13 12 11 11 10 9 8 7 8 8 9 9 9 9 9 8 8 8 9 10 9 9 9 9 9 9 9 10 10
28 28 28 28 28 27 27 26 25 25 24 23 21 18 15 14 14 14 12 11 10 9 9 9 10 10 10 11 10 10 10 9 9 10 10 10 10 11 11 10 10 10 10 11
29 28 28 28 29 28 27 26 27 26 25 24 21 19 16 15 14 15 13 12 10 9 10 11 12 12 11 11 11 11 10 10 10 10 11 11 11 12 12 11 11 11 12 12
29 29 28 29 29 28 27 27 27 27 27 25 23 21 17 16 15 15 14 13 11 11 11 11 11 12 12 12 12 12 12 12 11 11 11 12 12 12 12 11 12 12 12 12
29 29 29 29 28 29 28 27 27 27 27 26 25 22 19 18 17 17 16 15 13 12 12 11 13 12 12 11 12 13 13 13 12 12 11 12 12 12 12 12 13 13 13 13
29 29 28 29 29 29 29 28 28 27 27 26 25 23 20 19 17 17 17 16 14 14 13 13 12 12 11 11 13 14 13 13 12 11 11 12 12 12 13 13 14 13 13 13
28 28 28 28 27 27 27 27 27 27 27 26 25 23 21 19 18 17 17 17 16 15 15 14 13 13 13 13 13 12 13 12 11 11 11 12 12 12 12 13 13 13 12 13
28 28 27 28 28 28 27 27 27 27 27 26 25 24 21 20 20 18 18 18 18 17 15 14 14 14 14 14 14 13 13 12 12 12 12 13 13 13 13 13 13 13 13 13
29 28 27 27 27 28 28 27 27 27 26 26 25 24 22 21 21 20 19 20 19 19 16 15 15 14 14 14 14 14 13 12 12 13 13 14 14 14 14 14 14 14 14 14
29 29 28 28 27 27 28 27 27 26 26 26 25 23 22 21 21 21 21 21 20 18 16 15 15 15 15 15 15 14 14 14 14 14 14 15 15 15 15 15 15 15 15 14
30 30 29 29 29 30 28 27 27 26 25 25 24 23 22 21 21 21 21 20 18 17 17 16 16 16 16 17 17 17 17 17 16 15 15 15 15 15 15 15 15 16 15 14
31 30 30 30 30 30 29 28 27 26 25 24 23 22 22 21 20 21 20 19 18 17 17 16 17 17 18 18 18 18 18 17 16 16 16 16 16 16 16 16 16 16 15 15
31 31 30 30 30 30 28 27 27 26 25 24 23 22 21 21 20 20 20 19 18 19 18 18 18 19 19 19 18 17 17 18 17 17 17 17 16 16 16 17 17 17 16 17
34 33 32 31 31 30 28 27 27 28 25 23 23 22 21 21 20 21 21 21 20 20 20 20 20 19 19 18 17 17 18 19 18 18 17 17 17 17 17 17 17 17 18 18
34 33 33 32 32 31 29 28 28 28 26 25 24 23 22 22 22 22 22 22 22 22 21 21 20 19 18 18 19 19 18 18 18 18 18 18 18 18 18 18 18 19 19 19
34 33 33 33 32 31 30 29 30 29 28 26 25 23 23 22 22 23 23 23 22 22 23 22 21 21 20 20 19 19 19 19 19 19 18 18 19 19 19 19 19 20 21 20
34 33 33 32 31 31 31 30 30 29 28 27 26 24 23 22 23 23 24 23 23 23 24 23 22 23 22 21 21 21 21 20 20 20 19 19 20 20 20 21 21 22 21 21
34 33 33 32 31 31 30 30 29 29 29 27 26 25 25 24 25 25 25 25 24 24 24 24 24 24 24 23 22 22 22 22 21 21 21 20 21 21 22 22 23 23 22 22
34 33 33 33 32 31 31 30 29 28 29 29 27 26 25 25 25 25 25 24 24 24 23 24 24 24 23 23 22 22 22 21 21 21 21 21 21 21 22 23 23 23 23 22

GEFSCGP_500_meanwind_234.txt.gz
Wind_Speed
19 18 17 16 15 15 13 11 10 10 8 7 6 5 4 3 2 2 2 2 3 4 4 3 3 3 3 4 5 6 5 4 4 3 4 5 5 5 5 5 5 5 5 4
21 21 19 18 17 16 15 13 12 12 10 9 7 7 6 4 4 4 4 4 4 4 4 4 4 4 4 5 6 6 5 5 5 4 5 6 6 6 6 5 5 6 6 6
22 22 20 19 19 18 17 15 15 14 12 11 10 9 7 6 6 6 5 5 5 5 5 5 6 5 5 6 6 6 6 6 6 5 6 6 6 6 6 5 5 6 7 8
25 23 21 21 20 19 18 17 17 16 13 12 11 9 9 7 7 7 7 6 6 6 6 7 7 6 6 6 6 7 7 6 6 6 6 7 7 6 6 6 7 8 9 10
25 24 23 22 21 20 20 19 18 16 15 14 12 10 10 9 8 7 7 7 6 6 6 7 6 6 6 6 6 7 7 7 7 7 7 8 7 7 8 8 8 9 9 10
26 25 24 24 22 22 20 19 18 17 16 16 14 11 10 10 8 8 8 7 6 5 6 6 5 6 6 7 7 7 7 8 8 8 8 8 8 8 9 10 10 10 10 10
26 26 25 24 23 22 21 19 18 17 18 17 15 14 13 11 9 8 8 7 7 6 6 5 5 6 7 7 8 8 8 8 9 9 9 9 9 9 9 11 11 11 10 9
26 26 26 25 24 23 22 21 19 17 16 15 17 15 14 13 11 10 9 8 8 7 7 7 7 7 8 8 8 9 10 9 9 9 9 9 9 9 10 10 11 11 10 10
27 26 26 25 24 23 23 23 21 19 18 16 16 16 15 14 13 12 11 10 10 9 9 9 9 9 9 9 9 10 10 9 9 9 9 9 10 10 11 11 11 10 10 10
27 27 26 25 25 25 24 23 22 21 19 16 16 15 15 15 13 13 13 12 11 11 10 10 9 10 10 10 11 11 10 10 10 10 10 10 11 11 11 11 11 12 11 11
27 27 26 26 26 25 25 24 23 21 20 17 15 16 16 15 14 14 13 12 12 11 11 10 10 11 11 11 12 11 12 12 12 12 12 12 11 12 12 12 12 12 12 12
28 27 26 27 26 26 25 24 23 21 21 19 16 16 17 16 16 15 15 14 13 13 12 12 12 12 13 13 13 13 13 13 13 13 13 13 12 12 12 12 12 13 13 13
28 28 27 27 27 27 26 25 24 22 21 20 18 17 18 17 17 16 16 16 14 14 14 14 14 14 14 13 14 14 14 14 14 14 13 13 13 13 13 13 13 13 13 13
28 28 26 25 25 26 26 25 24 23 22 21 20 19 19 18 17 17 17 16 15 15 15 15 15 15 14 14 14 15 15 15 14 14 14 14 14 14 14 14 13 13 13 13
28 28 28 26 26 26 25 24 24 24 22 21 20 20 19 19 18 18 18 17 16 16 16 15 15 15 15 15 15 15 16 16 16 16 16 16 16 16 15 15 15 14 14 14
28 28 27 27 27 26 25 25 24 24 23 22 21 21 21 21 20 20 19 18 17 16 16 16 15 15 15 15 16 17 17 16 17 18 18 18 17 16 16 16 16 15 15 14
29 28 27 26 27 27 27 26 25 24 23 22 22 22 21 21 21 20 20 19 18 18 18 18 17 16 16 17 17 17 17 17 18 18 18 17 17 17 17 17 17 16 15 15
29 29 27 26 27 27 27 26 25 25 24 23 22 21 21 21 21 21 21 21 20 20 20 19 19 19 19 19 19 19 18 18 18 17 17 17 17 17 16 16 16 16 15 15
30 29 29 27 26 27 28 27 25 25 24 23 22 21 21 21 21 21 21 22 22 22 21 21 20 19 20 20 20 19 19 19 18 18 18 18 17 17 16 16 16 17 16 16
30 30 30 29 26 26 27 27 26 25 25 24 23 21 20 20 20 20 21 22 22 22 21 21 21 20 20 20 20 20 21 20 19 19 19 19 18 17 17 17 17 18 18 18
31 32 31 29 28 27 27 26 26 26 25 24 24 23 22 22 21 21 21 21 21 21 21 22 21 21 21 21 21 21 21 21 20 20 19 19 18 18 19 19 19 19 19 19
33 33 32 31 29 28 27 26 26 25 26 25 24 24 24 23 22 21 21 21 21 21 22 22 22 22 21 21 21 21 21 21 21 20 20 19 20 20 20 20 20 20 20 21
34 34 33 32 32 30 28 27 25 25 25 25 24 24 24 23 23 22 22 21 21 22 22 23 23 23 22 22 22 22 21 21 21 21 20 20 20 21 21 21 21 21 22 22
34 34 34 34 33 31 30 28 27 26 25 25 25 25 24 24 24 24 23 23 22 23 23 23 24 24 24 23 22 22 21 22 22 22 21 21 21 22 22 22 22 22 22 23
34 34 34 34 33 32 30 30 29 28 26 26 26 26 25 26 25 24 24 24 24 25 24 24 24 25 25 24 23 23 23 23 24 24 23 23 23 23 23 24 24 24 24 24
34 34 34 34 33 32 31 30 30 29 28 27 27 26 26 26 26 25 25 25 26 26 25 25 25 25 25 25 25 24 23 23 24 24 24 24 23 24 24 24 25 25 25 25

GEFSCGP_500_meanwind_240.txt.gz
Wind_Speed
18 16 14 13 12 11 9 9 9 8 8 6 5 6 6 7 6 7 7 7 7 7 8 8 8 8 8 8 7 9 10 10 9 9 8 8 8 9 9 9 9 8 8 8
20 18 17 16 14 14 14 12 10 8 10 8 7 7 7 8 8 8 8 8 8 7 8 7 8 8 8 8 8 9 9 10 10 9 9 9 9 8 8 9 9 9 8 8
20 18 19 18 17 16 15 13 11 11 11 11 10 10 9 9 8 9 9 9 8 8 8 8 8 8 8 8 8 9 9 9 9 9 9 9 9 9 9 9 9 10 9 9
23 22 21 20 19 18 17 15 14 12 12 11 11 11 11 12 10 9 9 9 8 8 8 8 8 8 8 8 8 8 9 9 9 10 10 9 9 9 9 10 10 10 10 10
24 23 21 20 19 19 18 15 14 13 13 13 12 12 12 13 12 9 9 9 8 8 8 8 8 8 8 8 8 9 9 9 9 9 10 10 10 10 10 11 10 10 11 12
24 24 22 21 21 21 19 17 15 14 15 17 16 14 13 12 10 8 8 9 8 7 8 8 8 8 8 9 9 10 9 9 9 10 11 10 10 11 11 11 11 11 11 12
26 24 23 22 22 22 20 19 16 17 17 17 15 15 15 13 12 10 10 9 9 8 8 8 8 9 9 9 10 10 10 9 10 11 11 11 11 11 11 11 10 11 12 12
25 24 24 24 23 21 21 20 19 16 14 15 15 16 15 14 15 14 13 11 10 9 9 9 9 9 9 10 10 10 10 10 11 11 11 12 12 11 11 11 11 11 12 12
20 21 24 24 23 22 22 22 19 16 15 14 14 15 16 15 16 15 15 12 11 11 11 10 10 10 10 11 11 11 11 11 11 11 12 12 12 12 12 12 12 12 12 12
23 20 21 23 24 24 23 21 20 20 19 16 15 14 15 16 14 14 14 14 14 12 11 11 11 11 11 12 12 12 12 12 12 12 13 13 13 13 13 13 13 13 13 14
25 23 21 23 25 24 24 22 20 20 19 17 14 14 16 17 17 16 14 14 15 14 13 13 13 12 12 12 13 13 13 13 13 14 14 14 13 13 13 14 14 14 14 14
26 24 22 22 23 23 23 22 21 21 21 18 17 17 15 15 17 16 15 15 15 15 15 14 14 14 13 13 13 13 14 14 14 15 15 14 14 14 14 15 15 15 15 16
28 27 24 22 22 23 24 24 23 22 20 20 20 19 17 17 17 18 17 17 17 16 16 16 16 15 15 14 14 14 15 15 15 16 16 15 15 15 16 16 16 16 16 16
31 30 27 23 21 21 23 23 23 23 22 21 21 20 19 20 20 20 19 18 18 17 17 17 16 16 16 16 16 16 16 16 17 17 17 16 16 16 16 16 16 16 17 16
32 31 30 26 23 22 21 22 23 25 23 21 20 21 21 21 21 21 19 20 20 19 19 18 18 17 17 17 17 17 18 18 18 18 18 18 17 17 18 18 17 17 17 17
32 33 32 30 27 23 23 22 22 22 23 22 21 20 21 21 21 20 20 21 22 21 21 20 19 18 18 18 18 18 19 19 19 19 19 18 18 18 19 18 17 17 17 17
32 33 32 29 26 25 24 23 23 22 23 23 23 22 20 21 21 22 22 21 22 22 22 21 20 19 19 19 19 19 19 19 19 19 19 19 19 19 18 19 18 18 18 18
32 32 31 28 26 26 26 24 23 23 23 24 25 25 24 23 22 23 23 22 21 22 21 21 20 20 20 20 20 20 20 20 20 20 20 20 19 19 19 19 18 17 17 17
32 32 31 29 26 24 23 24 24 25 26 24 24 24 23 23 23 23 24 22 22 23 22 22 22 21 21 21 22 21 21 21 21 21 20 20 20 20 20 20 18 18 18 17
32 32 33 31 28 25 25 25 25 24 27 26 25 26 25 24 24 23 22 22 23 24 24 24 23 23 22 22 22 21 22 22 22 22 21 21 21 21 20 20 19 20 20 19
31 32 34 32 29 28 27 23 24 26 27 28 27 27 27 26 25 24 24 24 24 25 25 25 24 24 23 23 22 22 23 23 23 22 22 21 21 21 21 21 21 21 21 21
30 31 33 33 31 30 30 28 27 27 28 29 29 28 28 27 26 26 26 26 25 26 26 25 25 25 25 24 24 24 24 24 23 22 22 23 23 23 23 22 21 21 22 22
31 32 32 34 35 34 31 30 29 28 29 30 30 30 29 29 28 28 27 27 26 26 25 25 26 25 26 26 25 25 25 25 25 25 24 24 24 24 24 23 22 22 22 22
33 33 34 35 36 36 32 29 29 29 30 30 29 29 30 30 30 29 28 28 28 27 26 25 25 25 25 26 26 25 25 25 25 26 25 25 25 24 24 24 24 24 24 24
32 33 35 36 35 35 35 33 30 30 30 30 30 29 29 29 30 29 28 28 28 27 26 25 25 25 25 25 25 26 26 26 26 26 26 25 25 24 24 24 25 25 25 25
33 34 36 36 35 34 34 34 33 32 32 32 31 31 31 30 30 29 29 29 28 28 27 26 25 26 26 26 26 26 26 26 27 27 26 26 26 25 25 26 26 25 25 25

GEFSCGP_500_meanwind_246.txt.gz
Wind_Speed
21 18 16 14 13 11 10 9 7 5 3 2 3 3 4 5 6 7 7 7 7 8 8 8 8 8 8 8 8 8 8 9 9 9 9 9 8 8 7 7 7 6 6 6
23 19 17 16 15 13 12 11 9 7 5 4 4 4 5 5 5 5 6 7 7 7 7 7 7 7 8 8 8 8 8 8 8 8 8 8 8 7 8 7 7 7 7 7
24 21 20 19 18 17 14 13 11 9 7 7 7 6 5 4 5 5 6 5 6 7 7 6 6 7 7 7 7 7 7 8 8 8 8 8 8 8 7 7 8 8 8 8
26 24 23 21 20 19 17 14 13 11 12 10 9 7 5 4 4 5 6 6 6 6 6 6 6 6 6 6 7 7 7 7 7 8 8 8 7 7 8 8 8 8 8 8
27 25 24 23 21 19 18 16 14 13 13 12 11 9 6 5 5 5 6 5 5 5 5 5 5 6 6 6 7 7 6 7 7 7 8 8 7 7 8 8 8 8 8 9
27 27 26 24 23 21 20 19 17 17 17 16 12 12 9 7 5 5 6 6 6 5 5 5 5 6 6 6 6 7 7 7 7 7 8 8 8 8 8 8 9 9 9 9
28 28 26 25 24 23 22 21 21 21 20 16 13 14 11 8 6 6 6 6 6 6 6 5 5 5 6 7 7 7 7 7 7 8 8 8 8 9 9 9 10 10 9 9
28 27 26 25 24 23 24 23 23 22 19 17 15 14 11 9 8 9 8 8 8 8 6 5 5 5 6 7 8 8 7 7 8 8 8 9 9 9 9 9 10 10 9 9
27 25 25 24 24 24 24 24 23 22 20 17 15 12 11 11 11 10 9 9 10 10 9 7 6 6 6 7 7 8 8 8 8 9 9 9 10 10 10 10 11 11 10 10
27 25 24 24 25 25 24 23 23 22 20 19 16 14 13 12 11 11 11 10 10 10 9 8 8 8 8 8 8 8 9 9 9 10 10 10 11 11 11 11 11 12 11 10
28 26 25 25 25 25 24 24 24 23 21 19 17 15 13 13 11 11 11 10 10 10 9 9 9 9 9 9 9 9 10 10 10 11 11 11 12 12 12 12 12 12 12 11
29 28 26 26 25 24 24 25 24 24 23 21 19 17 15 14 13 12 13 13 12 11 10 10 10 10 10 9 9 10 10 11 11 12 12 12 13 14 14 14 13 13 13 13
31 30 28 27 27 26 25 26 26 25 24 22 21 19 17 16 14 14 16 14 13 12 11 11 11 10 10 10 10 10 11 12 12 13 13 14 15 15 16 15 15 15 14 14
32 31 31 29 27 26 26 26 26 26 25 23 22 21 20 18 17 16 16 15 15 14 13 13 12 13 12 12 11 11 12 12 13 13 14 15 15 16 16 17 16 15 14 14
33 32 31 31 29 28 26 27 27 26 25 24 23 22 21 20 19 18 17 16 15 14 14 14 14 14 14 13 12 13 14 14 14 14 15 15 15 16 16 17 16 15 15 14
35 34 33 32 31 29 27 27 26 26 26 24 24 24 23 22 21 20 19 18 16 15 15 16 16 16 15 14 14 15 15 15 16 16 16 16 16 16 16 17 15 14 14 14
36 34 34 32 32 31 30 28 27 27 27 27 26 25 24 23 23 22 20 20 19 18 16 17 17 16 16 16 16 17 17 17 17 17 17 17 17 17 17 16 15 15 14 14
35 35 35 34 33 34 32 29 27 28 28 27 26 26 24 24 23 22 21 20 18 17 16 17 17 17 17 16 17 18 18 18 18 17 18 18 18 18 18 17 16 16 16 15
34 35 35 35 34 34 32 30 29 28 30 29 29 28 26 24 24 22 21 21 20 18 18 18 18 18 17 17 18 18 19 19 17 17 18 18 19 19 18 18 17 16 16 16
34 35 36 36 36 35 33 32 32 31 31 29 28 27 25 24 24 23 23 22 22 21 20 20 20 19 19 18 19 19 19 19 19 18 18 19 18 18 18 18 17 17 18 17
33 35 36 36 36 35 34 33 32 33 31 29 29 28 26 25 25 23 23 23 23 23 23 23 23 22 21 20 19 20 20 20 19 19 18 19 18 19 19 18 18 19 18 18
33 34 36 36 36 36 34 34 33 31 30 30 29 27 27 26 26 25 24 23 23 24 24 25 25 24 23 21 20 21 21 20 20 19 19 19 20 19 18 18 19 19 19 19
34 34 35 35 35 35 35 34 33 32 32 30 30 29 27 26 25 26 25 24 24 25 25 25 25 24 23 21 22 21 21 20 20 20 20 21 20 20 20 19 19 19 19 20
34 34 35 35 35 35 35 35 34 33 34 32 31 29 27 27 26 27 27 26 25 25 26 26 25 24 23 23 23 22 22 21 21 21 21 21 21 21 22 22 21 21 22 21
34 34 35 35 35 35 33 34 33 33 33 31 31 30 30 29 29 29 28 28 28 27 27 26 26 25 25 24 23 22 23 22 22 22 21 22 22 22 23 23 23 23 23 23
35 35 35 35 35 34 34 34 33 33 32 30 30 30 30 30 30 30 29 29 28 27 26 26 26 26 25 25 24 24 24 24 23 22 23 23 23 23 23 23 24 24 23 23

GEFSCGP_500_meanwind_252.txt.gz
Wind_Speed
19 18 17 15 14 12 11 8 6 3 2 1 1 2 3 4 4 4 5 5 6 6 7 7 8 7 7 7 6 7 7 7 8 9 10 11 10 10 9 9 8 8 8 7
21 20 19 18 16 14 13 11 9 7 5 3 2 1 0 2 3 4 4 4 5 5 6 6 7 7 7 6 6 6 6 7 8 8 9 10 9 9 9 9 9 9 9 8
23 22 21 20 18 16 15 13 11 10 8 6 5 4 3 1 3 3 3 4 4 4 5 5 5 6 6 6 6 7 7 7 7 8 8 9 9 9 10 9 9 9 10 9
25 25 24 22 20 19 17 15 14 12 11 9 8 6 5 4 3 2 2 3 3 4 4 4 4 5 5 6 6 7 7 7 7 7 8 8 9 9 10 10 10 10 10 10
26 26 25 24 22 20 18 17 16 16 14 11 9 8 6 5 4 2 2 2 3 4 4 4 4 4 5 6 6 7 7 7 7 7 7 8 9 9 10 11 11 12 11 12
27 26 26 25 24 22 21 19 18 18 17 15 12 11 8 7 5 4 4 4 4 4 4 4 4 4 5 6 6 7 7 7 7 7 8 8 9 10 10 12 12 13 13 12
29 28 27 26 26 24 23 22 21 20 19 16 14 14 10 8 7 6 6 6 6 5 5 4 4 4 4 5 6 7 7 7 7 7 8 9 9 10 11 12 12 13 13 13
29 28 27 26 25 24 23 23 23 22 20 17 17 16 12 10 9 9 8 6 6 6 6 5 5 5 5 6 6 6 7 7 8 8 8 9 9 10 11 12 13 13 14 13
29 28 27 26 25 25 24 24 24 24 22 20 19 17 14 13 11 9 8 7 7 7 7 6 5 5 6 6 6 6 7 8 8 8 9 9 10 11 11 12 13 14 14 14
30 29 28 27 27 26 24 24 24 24 23 22 20 18 16 14 12 10 10 9 8 8 7 6 6 6 6 7 7 7 8 9 9 9 10 10 11 11 12 13 14 15 15 14
31 30 29 28 28 25 25 25 24 23 22 22 21 19 16 15 14 13 11 10 9 8 8 8 7 7 7 7 8 8 9 10 10 10 11 11 12 12 13 14 15 15 16 15
31 31 30 29 28 27 26 25 25 24 23 22 21 19 17 16 15 14 13 11 10 9 10 10 9 8 8 8 9 9 10 11 11 12 12 13 12 13 14 15 16 15 16 16
32 32 31 30 30 28 28 26 25 24 23 23 22 20 18 17 16 15 14 12 11 11 11 10 10 10 9 9 10 11 11 12 12 12 13 13 13 14 15 16 16 16 16 16
32 32 31 30 28 28 28 27 25 24 24 23 22 21 19 18 17 16 15 14 13 14 13 11 11 11 11 11 11 12 13 13 13 13 13 14 14 15 16 16 16 16 16 17
32 32 30 29 29 29 28 27 26 25 24 23 22 21 20 18 17 16 16 16 16 15 14 14 13 13 13 12 12 13 14 13 14 14 15 15 15 16 16 16 16 16 16 17
32 32 31 31 30 30 29 28 27 26 24 24 23 22 20 19 19 18 17 17 17 17 15 15 15 14 14 14 14 14 15 16 15 15 16 16 16 16 16 15 16 16 16 17
32 32 31 30 30 31 31 29 28 27 26 25 23 22 21 20 19 19 19 19 19 18 17 17 16 16 16 16 17 17 18 19 18 18 17 17 16 16 16 16 16 17 17 17
32 32 31 30 30 32 30 29 28 28 27 25 24 23 22 21 21 21 20 19 19 19 18 18 17 17 17 18 18 19 20 20 19 18 18 17 17 17 17 16 17 17 17 17
33 33 32 32 32 32 31 30 28 28 27 26 25 24 23 22 22 21 21 21 21 20 19 18 18 18 18 19 20 21 21 20 19 18 18 18 17 17 17 18 18 19 19 18
34 34 34 33 32 32 31 30 29 28 28 26 25 24 24 23 23 22 22 22 21 20 19 19 18 18 19 20 20 21 21 21 20 19 19 19 18 18 19 19 19 19 19 19
33 34 34 34 33 32 30 30 29 29 27 26 26 25 24 24 24 23 23 22 21 20 20 20 20 20 20 20 21 21 21 21 21 20 19 19 19 20 20 20 20 21 21 21
33 33 34 35 34 32 30 29 29 28 27 27 27 26 25 25 24 23 22 22 21 21 20 20 21 21 21 20 21 21 21 21 20 20 19 19 19 19 20 21 21 22 22 22
34 34 34 35 34 31 30 29 30 29 29 28 27 26 25 25 24 23 23 22 21 22 21 21 21 21 21 22 22 23 23 22 21 21 21 20 19 20 20 21 21 21 22 22
33 33 34 35 34 33 31 29 29 29 29 28 28 28 27 27 26 25 24 23 22 21 21 21 21 22 22 23 24 24 23 23 22 21 21 20 20 20 21 21 22 22 22 22
33 33 34 34 34 34 32 30 30 29 29 29 29 30 29 28 27 26 25 24 23 23 22 22 23 23 23 24 23 23 22 22 22 21 20 21 21 22 21 22 23 23 22 22
33 33 34 34 33 33 32 31 31 30 30 30 30 30 30 29 28 27 26 25 24 24 23 23 24 24 24 24 24 23 23 23 22 21 21 21 21 22 23 24 24 24 23 23

GEFSCGP_500_meanwind_258.txt.gz
Wind_Speed
16 15 13 12 11 10 8 7 5 4 3 1 1 1 2 2 4 5 4 5 5 5 6 6 6 6 6 6 6 7 7 8 8 9 9 9 10 10 10 10 10 10 9 8
19 18 16 14 13 11 9 8 7 6 5 3 2 1 1 2 2 3 4 4 5 5 5 5 6 6 6 5 6 6 7 8 8 8 8 8 9 10 10 10 10 9 9 8
21 21 19 16 14 13 11 10 9 8 7 5 3 3 3 2 2 2 3 3 4 6 6 6 6 6 6 6 6 6 6 7 8 8 8 8 9 9 10 10 10 9 9 9
24 23 21 19 17 15 13 12 11 10 8 7 6 5 5 4 3 2 2 3 4 5 5 5 6 6 6 6 6 6 6 7 7 8 8 9 10 10 11 10 10 10 10 10
26 24 23 21 19 17 16 14 12 11 10 10 8 6 7 6 4 3 3 3 3 4 5 5 6 6 5 6 6 5 6 6 7 7 8 9 9 10 10 10 10 11 11 12
27 25 25 23 21 20 18 16 14 13 12 12 11 9 8 7 5 4 4 3 3 4 4 5 5 6 6 6 6 5 5 6 7 7 8 9 9 10 10 10 11 12 12 12
27 27 26 25 23 22 20 17 15 14 15 14 13 12 10 9 7 6 6 5 5 5 4 4 4 5 5 5 5 5 5 6 6 7 8 9 9 10 11 11 12 12 13 12
28 27 26 25 25 23 21 19 18 16 15 14 15 14 12 11 9 7 7 6 6 6 5 5 4 4 5 5 5 5 6 7 7 8 8 9 10 10 11 12 12 12 13 14
28 27 27 26 25 24 23 21 19 17 16 15 15 15 13 12 10 9 8 7 7 7 7 6 5 5 5 6 6 6 6 7 8 9 9 10 11 11 12 12 12 12 13 14
29 28 27 26 26 26 24 22 21 20 18 16 16 15 14 13 12 11 11 10 9 8 8 7 7 7 7 7 8 8 8 8 9 10 10 10 10 11 12 12 13 13 13 14
30 29 28 27 27 26 26 25 23 21 19 16 15 15 15 14 13 13 12 11 10 9 9 8 9 9 9 9 9 10 10 10 10 10 11 11 12 12 13 12 13 13 14 14
30 29 29 29 28 27 26 26 24 22 21 19 16 16 17 15 13 12 12 12 11 10 10 9 9 9 10 10 10 11 11 11 11 11 12 12 13 13 13 13 14 14 14 14
31 31 29 28 29 28 28 27 26 24 22 20 17 17 17 16 15 13 13 13 13 12 11 11 11 11 11 11 11 12 12 12 12 12 13 14 14 14 13 14 15 15 15 15
32 31 29 26 26 27 27 27 27 26 23 21 19 18 18 16 15 15 15 14 14 14 13 13 13 13 13 12 12 12 12 13 13 13 14 15 15 15 15 15 15 15 15 16
32 31 31 30 28 28 28 28 28 27 25 22 20 20 19 18 16 16 16 16 15 15 15 15 14 14 14 14 14 14 14 14 15 16 16 16 16 16 16 16 16 17 17 17
32 32 31 31 29 29 29 29 29 27 26 24 22 21 20 19 18 17 17 17 16 16 16 16 16 16 16 16 15 16 16 16 16 17 18 17 17 17 17 17 17 18 18 17
32 32 31 30 30 29 30 29 28 27 26 24 23 23 21 20 19 18 18 18 17 17 16 17 18 18 18 18 18 18 18 18 18 19 19 19 19 19 19 19 19 18 18 18
32 31 30 29 30 30 29 29 27 27 27 26 24 24 22 21 20 19 19 19 19 19 18 18 18 18 19 20 20 19 19 19 19 19 20 20 20 20 20 20 19 19 19 18
31 31 30 29 29 29 31 29 28 27 27 26 25 24 24 22 21 21 21 20 20 20 20 19 19 20 20 21 20 20 19 20 20 20 21 21 21 21 21 20 20 19 19 19
29 30 30 30 28 28 30 29 28 28 28 27 27 25 24 23 23 22 22 21 21 21 21 21 21 20 21 21 21 22 21 21 22 22 22 22 22 21 21 20 20 20 20 20
29 29 29 30 30 29 30 28 28 28 28 28 27 26 25 25 24 23 23 23 23 23 23 23 23 22 21 22 22 23 23 23 23 23 23 23 23 21 21 21 21 21 20 21
28 28 28 28 29 29 29 28 29 28 28 28 27 26 26 26 25 25 24 24 24 23 23 23 23 23 23 23 23 23 23 24 24 24 24 24 23 22 22 22 22 21 21 22
30 29 28 28 29 29 28 28 28 28 28 27 27 27 26 27 27 25 25 24 23 23 23 23 22 22 23 23 23 23 23 23 23 24 24 24 24 23 23 23 23 22 22 23
31 29 29 28 28 28 28 28 28 28 28 27 27 27 27 27 26 26 26 26 25 25 24 24 24 23 23 23 23 23 23 23 23 23 22 23 23 24 24 24 24 23 24 24
33 31 30 29 28 28 28 28 28 28 28 28 28 28 27 28 27 27 27 27 27 26 25 24 24 23 23 23 24 24 23 23 22 22 21 21 22 23 24 24 24 24 24 24
32 31 31 31 30 29 28 29 29 28 29 29 29 29 29 29 29 29 29 28 27 26 26 26 25 25 24 24 24 24 24 23 23 23 23 23 23 24 24 24 25 25 25 25

GEFSCGP_500_meanwind_264.txt.gz
Wind_Speed
12 12 11 10 8 7 6 5 5 4 2 3 5 5 6 6 5 6 7 7 8 8 8 9 10 10 10 10 10 10 10 10 10 10 11 11 11 11 11 11 12 11 10 9
15 14 13 11 11 10 9 8 6 5 3 3 5 5 5 6 6 5 6 7 7 7 8 8 9 9 9 10 10 9 10 9 10 10 11 12 12 12 12 12 11 11 10 10
16 15 14 13 13 12 11 9 8 7 6 6 6 7 6 7 7 6 6 6 7 7 7 7 8 8 8 8 9 9 10 10 10 10 11 11 12 12 13 13 13 12 11 11
19 18 17 17 15 14 12 10 11 9 7 6 6 8 9 9 8 7 6 6 7 7 7 7 7 7 7 8 8 10 10 10 10 10 10 11 11 12 13 13 13 12 11 12
21 21 21 19 17 17 15 12 11 10 8 8 8 9 10 11 10 8 8 7 8 7 7 7 7 7 7 7 8 9 9 9 9 9 10 10 11 11 12 13 13 13 12 12
23 21 21 20 19 18 17 14 13 12 11 12 11 10 12 13 11 9 9 8 8 8 7 7 6 6 7 8 8 9 9 9 9 9 10 10 11 11 12 13 13 13 13 13
24 23 22 21 20 20 19 16 15 14 13 12 10 11 13 13 12 11 11 10 8 8 7 7 6 6 6 8 9 9 9 9 9 9 10 10 11 11 12 13 13 13 13 13
24 23 22 22 22 21 20 17 16 13 11 11 10 12 12 13 13 12 12 11 9 8 7 7 6 7 7 8 9 9 9 9 9 10 10 10 11 11 12 12 13 14 14 14
23 23 23 22 22 21 20 19 17 15 13 14 13 13 14 16 13 13 14 12 12 10 9 8 7 7 8 8 9 10 9 9 10 10 11 11 11 11 13 13 14 14 14 15
23 22 23 24 22 22 21 20 18 19 18 17 14 14 15 16 16 14 14 13 13 11 10 9 8 7 8 8 9 10 10 10 11 11 11 11 11 11 13 14 15 15 15 15
26 24 23 25 25 22 22 21 21 20 19 17 15 17 17 17 18 16 14 13 14 12 11 10 9 9 9 9 10 11 10 11 11 11 11 12 12 13 13 14 15 16 16 16
29 26 23 25 24 22 23 23 21 22 22 19 17 17 18 18 18 18 17 17 16 14 13 13 12 11 11 11 11 11 11 11 11 12 12 12 13 14 14 15 16 16 16 16
30 29 25 22 23 23 24 24 24 23 21 20 19 19 19 20 20 19 18 19 17 16 15 15 14 13 13 13 12 12 12 12 13 13 13 14 15 15 15 16 16 17 17 17
31 31 29 25 23 22 23 24 24 24 23 22 21 20 21 20 20 20 18 18 18 17 17 16 15 15 14 14 13 12 13 13 14 14 15 15 16 16 17 17 17 18 18 18
33 32 32 28 24 23 23 23 24 26 25 23 21 20 21 21 21 21 19 18 18 18 18 18 17 16 16 16 16 15 14 14 16 16 16 17 17 18 18 19 18 19 19 19
33 33 32 31 26 24 24 24 26 26 24 23 22 23 23 22 22 21 20 20 20 19 19 19 18 18 17 17 17 17 18 17 17 17 18 18 18 19 20 20 20 19 19 20
32 33 31 30 30 27 28 26 26 27 26 25 25 25 24 26 26 24 24 23 21 21 20 19 19 19 19 18 19 19 19 19 19 19 19 20 20 20 21 21 20 20 20 20
33 32 31 28 28 30 28 25 25 28 28 27 28 28 27 28 28 27 25 23 22 22 21 19 20 20 20 20 20 20 21 20 20 21 21 20 21 21 21 21 21 20 21 21
32 33 31 29 29 28 27 26 27 28 29 28 30 29 28 30 30 28 26 24 23 22 21 20 21 21 21 21 22 22 22 22 22 22 22 22 22 21 21 21 21 21 21 21
31 32 32 31 30 28 26 27 27 28 31 29 30 31 31 31 30 28 27 27 27 25 23 22 23 22 22 23 23 23 23 23 23 22 23 23 22 22 22 22 22 22 23 23
31 32 32 31 31 30 28 27 26 28 29 30 30 31 32 31 31 30 29 28 27 26 25 24 25 25 24 23 23 23 23 23 23 23 23 23 22 22 23 23 23 24 24 24
30 31 33 31 31 28 30 29 29 29 29 29 30 32 33 31 30 30 29 29 28 28 26 26 25 25 24 24 24 24 24 24 24 23 23 23 23 24 24 24 24 25 25 24
30 30 32 32 33 33 32 32 32 31 30 30 31 31 30 30 30 31 30 29 29 28 27 26 25 25 25 25 26 25 25 25 25 24 24 24 25 25 25 25 25 25 24 24
29 30 32 33 33 32 33 33 33 33 32 31 31 31 32 32 31 30 30 29 28 28 27 26 27 27 27 27 27 27 27 27 26 26 26 26 26 27 27 26 26 25 24 24
29 31 33 33 33 34 34 34 35 35 33 33 32 32 33 32 32 31 30 28 29 29 29 28 28 28 29 29 28 28 28 27 27 26 26 26 26 26 26 26 26 26 26 26
29 30 31 33 33 34 35 33 33 34 34 33 30 31 32 31 31 31 31 31 31 31 31 31 30 30 30 30 29 29 29 28 27 28 28 28 28 26 26 26 26 27 27 27

GEFSCGP_500_meanwind_270.txt.gz
Wind_Speed
16 15 12 10 8 8 8 6 4 2 3 4 5 5 7 8 8 9 9 10 11 11 11 11 11 11 11 11 11 12 12 11 11 10 10 10 10 9 9 8 7 8 7 7
18 15 12 12 13 12 9 7 5 3 0 2 3 4 5 7 8 8 9 9 10 10 11 11 12 11 10 11 11 11 11 11 11 11 11 10 10 9 9 9 9 9 8 7
18 15 14 16 16 15 12 9 6 4 4 2 1 3 3 4 5 6 7 8 8 9 10 10 10 10 10 10 10 11 11 10 10 10 10 10 10 10 10 10 9 9 9 8
21 19 18 18 17 15 13 11 7 7 6 5 3 3 2 2 3 4 5 6 6 7 8 8 8 8 8 9 9 10 10 10 10 10 10 10 10 10 10 10 10 10 9 9
23 21 21 21 18 16 14 13 11 9 9 8 7 6 4 3 4 4 5 5 6 7 6 6 7 6 7 7 8 9 9 9 9 9 9 9 10 10 10 10 11 11 10 10
25 23 22 21 20 18 16 15 14 13 13 11 9 8 5 4 4 4 3 3 4 5 5 5 5 4 5 6 7 8 8 9 9 9 9 9 8 9 9 9 10 10 10 10
26 25 24 23 22 21 20 18 17 17 16 14 12 10 7 5 5 4 4 3 4 4 5 5 5 4 4 5 6 7 7 7 8 8 9 8 8 9 9 9 9 10 10 10
26 27 26 25 23 21 21 21 20 19 17 15 14 13 9 7 5 5 5 5 5 5 5 4 4 3 3 4 6 6 6 6 6 7 7 7 8 8 8 9 9 9 10 10
27 27 26 25 23 22 22 22 21 20 18 17 16 14 12 10 8 8 7 7 7 5 4 4 5 4 4 4 6 5 7 6 6 7 7 6 7 8 8 9 9 10 10 10
28 27 27 26 25 23 23 23 23 22 20 19 18 16 14 12 10 9 8 8 8 7 6 5 5 5 5 5 6 7 7 7 7 7 7 7 7 8 8 9 9 10 10 11
28 28 28 27 27 25 25 26 25 23 22 21 20 18 15 13 12 11 9 8 8 8 6 7 7 7 7 7 7 7 8 8 8 8 8 7 8 8 9 9 10 10 11 11
29 29 29 29 29 27 26 26 26 25 24 24 23 20 16 14 14 13 11 10 10 10 9 9 9 8 8 8 8 9 9 9 9 9 9 9 9 9 10 10 10 11 12 12
30 30 30 30 30 29 27 25 26 26 26 25 24 21 16 15 15 14 13 12 13 12 12 12 11 10 9 9 10 10 10 10 11 11 11 11 11 11 11 12 12 12 12 12
30 32 33 33 32 30 29 26 26 28 27 26 25 23 19 17 17 16 15 15 15 14 13 12 12 11 11 11 11 11 11 11 12 12 13 13 13 13 13 13 13 13 13 14
31 33 34 33 32 32 31 28 27 28 28 27 26 24 20 19 19 18 17 16 15 14 13 14 14 13 13 12 12 12 12 12 13 14 14 15 15 15 15 14 15 15 15 15
32 33 34 34 33 33 32 31 29 29 29 29 29 26 23 20 19 19 17 16 16 15 15 15 15 14 15 15 14 14 14 14 15 15 15 15 16 16 16 17 16 16 16 17
32 33 34 34 34 34 33 32 31 29 28 29 28 26 24 23 21 20 18 18 18 18 18 17 16 16 16 17 16 16 16 16 17 16 16 16 17 17 18 18 17 17 17 17
32 33 34 35 35 36 33 31 31 29 28 29 28 26 25 25 23 22 20 20 19 20 19 18 17 17 17 17 17 18 17 17 17 17 17 17 18 19 19 18 18 18 18 18
33 33 34 35 37 37 35 33 31 30 29 29 29 29 28 27 27 25 23 22 21 21 20 20 20 19 18 19 19 19 19 19 18 18 18 19 20 20 20 20 19 20 20 20
35 33 34 34 36 37 35 34 32 32 32 31 31 31 31 29 28 26 25 25 25 24 23 22 21 21 20 20 20 20 20 20 20 20 20 20 21 21 21 21 21 21 21 21
34 34 35 34 35 36 35 33 32 33 33 31 31 30 29 30 28 27 27 28 28 27 25 24 23 22 21 20 21 21 22 22 21 21 21 22 22 22 22 22 22 22 22 23
33 33 35 35 34 33 34 33 32 33 32 31 31 30 29 28 29 29 29 29 28 28 26 26 24 23 22 22 22 22 22 23 23 22 22 23 23 23 22 22 22 22 23 23
33 34 34 34 33 32 31 32 32 32 32 31 31 31 30 29 30 30 30 30 30 28 26 26 25 25 24 24 24 24 24 24 25 25 24 24 24 23 23 23 23 23 23 24
33 34 34 33 32 32 31 30 30 31 32 32 31 31 30 31 31 32 32 32 31 29 28 27 26 25 26 26 26 26 26 26 26 25 25 24 24 24 23 24 24 24 25 25
32 32 32 33 33 33 32 31 30 30 30 30 30 30 31 32 33 33 32 31 31 30 28 27 27 27 27 27 27 28 28 28 27 26 26 25 25 25 26 26 26 26 26 26
32 32 32 32 32 32 31 31 31 30 30 31 31 31 30 31 31 32 32 32 31 31 29 28 28 28 27 27 28 29 28 28 27 27 27 27 27 27 27 27 27 27 27 27